Location: Lourdes
(43.1000°N, 0.0500°W)
Time: 13:07:02
(UTC+00:00)

NOSS 3-2 (A) - Pass Details

Date: 30 November 2020
Orbit: 789 x 1419 km, 63.4° (Epoch: 22 January)

Event Time Altitude Azimuth Distance (km) Brightness Sun altitude
Rises 19:16:47 0° 229° (SW) 3,335 7.0 -30.4°
Reaches altitude 10° 19:19:09 10° 233° (SW) 2,451 6.2 -30.9°
Maximum altitude 19:24:42 57° 312° (NW) 1,062 3.8 -31.9°
Enters shadow 19:24:51 57° 319° (NW) 1,066 3.7 -31.9°
